FW7499 Weather Reports


time (UTC)temp
F
wind
direction
speed
knots
gust
knots
rain 1hr
in
rain 24hr
in
rain mn
in
humidity
%
barometer
mb
20260507101507 46 30 0.0 5.2 0.00 0.00 0.00 75 1012.4
20260507101004 45 218 0.9 5.2 0.00 0.00 0.00 75 1012.5
20260507100506 45 59 0.0 2.6 0.00 0.00 0.00 75 1012.5
20260507100017 46 197 0.0 2.6 0.00 0.00 0.00 74 1012.6
20260507095503 46 179 0.0 4.3 0.00 0.00 0.00 74 1012.7
20260507095011 46 29 0.9 4.3 0.00 0.00 0.00 74 1012.7
20260507094512 46 231 0.0 1.7 0.00 0.00 0.00 73 1012.6
20260507094007 46 89 0.0 2.6 0.00 0.00 0.00 73 1012.8
20260507093505 46 294 0.0 4.3 0.00 0.00 0.00 72 1012.8
20260507093007 46 87 0.0 5.2 0.00 0.00 0.00 72 1012.9
20260507092507 46 249 0.9 5.2 0.00 0.00 0.00 72 1012.9
20260507092009 46 276 0.9 3.5 0.00 0.00 0.00 72 1012.9
20260507091514 46 279 0.0 7.8 0.00 0.00 0.00 71 1012.9
20260507091014 46 167 1.7 7.8 0.00 0.00 0.00 71 1013.0
20260507090504 47 344 0.9 7.8 0.00 0.00 0.00 70 1013.1
20260507090016 46 251 0.9 7.8 0.00 0.00 0.00 70 1013.1
20260507085503 46 246 0.9 3.5 0.00 0.00 0.00 70 1013.2
20260507085007 47 289 0.9 6.1 0.00 0.00 0.00 70 1013.3
20260507084521 47 111 0.0 6.1 0.00 0.00 0.00 69 1013.3
20260507084004 47 158 0.0 6.1 0.00 0.00 0.00 69 1013.4
20260507083507 47 239 1.7 6.1 0.00 0.00 0.00 68 1013.4
20260507083020 47 265 0.9 6.1 0.00 0.00 0.00 69 1013.5
20260507082503 46 107 0.0 6.1 0.00 0.00 0.00 68 1013.5
20260507082010 46 266 0.0 6.1 0.00 0.00 0.00 68 1013.6
20260507081522 47 28 0.9 5.2 0.00 0.00 0.00 67 1013.6
20260507081007 46 346 1.7 5.2 0.00 0.00 0.00 66 1013.7
20260507080506 46 236 0.0 3.5 0.00 0.00 0.00 66 1013.7
20260507080016 46 207 0.0 3.5 0.00 0.00 0.00 65 1013.9
20260507075508 46 218 0.0 2.6 0.00 0.00 0.00 65 1013.9
20260507075004 46 186 0.0 3.5 0.00 0.00 0.00 65 1014.0
20260507074512 46 265 0.0 7.0 0.00 0.00 0.00 64 1014.0
20260507074004 46 285 0.9 7.0 0.00 0.00 0.00 64 1014.0
20260507073508 46 225 0.0 2.6 0.00 0.00 0.00 63 1014.1
20260507073016 46 277 0.9 2.6 0.00 0.00 0.00 63 1014.1
20260507072507 46 251 0.0 3.5 0.00 0.00 0.00 62 1014.2
20260507072008 46 248 0.0 3.5 0.00 0.00 0.00 62 1014.3
20260507071522 46 274 0.0 0.9 0.00 0.00 0.00 61 1014.3
20260507071008 46 195 0.0 2.6 0.00 0.00 0.00 60 1014.3
20260507070504 46 207 0.0 2.6 0.00 0.00 0.00 59 1014.4
20260507070026 46 184 0.0 1.7 0.00 0.00 0.00 60 1014.4
20260507065503 45 250 0.0 0.9 0.00 0.00 0.00 61 1014.6
20260507065006 45 283 0.0 0.9 0.00 0.00 0.00 59 1014.7
20260507064524 46 279 0.0 1.7 0.00 0.00 0.00 58 1014.8
20260507064007 46 279 0.0 1.7 0.00 0.00 0.00 57 1014.8
20260507063508 46 163 0.0 1.7 0.00 0.00 0.00 56 1014.9
20260507063024 46 232 0.0 1.7 0.00 0.00 0.00 56 1014.9
20260507062507 45 229 0.0 1.7 0.00 0.00 0.00 56 1014.9
20260507062007 45 229 0.0 1.7 0.00 0.00 0.00 56 1014.9
20260507061518 44 217 0.0 0.9 0.00 0.00 0.00 58 1015.0
20260507061007 44 294 0.0 0.9 0.00 0.00 0.00 57 1015.0
20260507060506 44 293 0.0 0.0 0.00 0.00 0.00 58 1015.1
20260507060017 44 293 0.0 0.0 0.00 0.00 0.00 57 1015.1
20260507055510 44 293 0.0 0.0 0.00 0.00 0.00 58 1015.2
20260507055007 44 293 0.0 0.0 0.00 0.00 0.00 60 1015.2
20260507054524 43 292 0.0 0.0 0.00 0.00 0.00 62 1015.2
20260507054007 44 292 0.0 0.0 0.00 0.00 0.00 63 1015.3
20260507053509 44 293 0.0 0.0 0.00 0.00 0.00 64 1015.3
20260507053026 43 293 0.0 0.0 0.00 0.00 0.00 65 1015.3
20260507052505 43 293 0.0 0.0 0.00 0.00 0.00 66 1015.2
20260507052012 43 292 0.0 0.0 0.00 0.00 0.00 64 1015.2
20260507051525 44 293 0.0 0.0 0.00 0.00 0.00 62 1015.3
20260507051008 44 293 0.0 0.0 0.00 0.00 0.00 61 1015.4
20260507050506 44 292 0.0 0.0 0.00 0.00 0.00 63 1015.4
20260507050023 44 292 0.0 0.0 0.00 0.00 0.00 59 1015.3
20260507045506 44 292 0.0 0.0 0.00 0.00 0.00 58 1015.3
20260507045006 44 293 0.0 0.0 0.00 0.00 0.00 59 1015.4
20260507044543 44 293 0.0 0.0 0.00 0.00 0.00 58 1015.4
20260507044008 45 293 0.0 0.0 0.00 0.00 0.00 55 1015.5
20260507043509 46 293 0.0 0.0 0.00 0.00 0.00 54 1015.5
20260507043018 45 293 0.0 0.0 0.00 0.00 0.00 53 1015.5
20260507042510 46 292 0.0 0.0 0.00 0.00 0.00 56 1015.5
20260507042009 45 293 0.0 0.0 0.00 0.00 0.00 54 1015.7
20260507041507 45 292 0.0 0.0 0.00 0.00 0.00 54 1015.7
20260507041004 45 292 0.0 0.0 0.00 0.00 0.00 57 1015.7
20260507040504 45 292 0.0 0.0 0.00 0.00 0.00 55 1015.7
20260507040009 44 292 0.0 0.0 0.00 0.00 0.00 58 1015.8
20260507035507 44 293 0.0 0.0 0.00 0.00 0.00 59 1015.8
20260507035005 45 293 0.0 0.0 0.00 0.00 0.00 60 1015.8
20260507034507 45 292 0.0 0.0 0.00 0.00 0.00 57 1015.9
20260507034003 45 293 0.0 0.0 0.00 0.00 0.00 57 1015.8
20260507033505 46 292 0.0 0.0 0.00 0.00 0.00 53 1015.8
20260507033004 46 292 0.0 0.9 0.00 0.00 0.00 55 1015.8
20260507032504 46 292 0.0 0.9 0.00 0.00 0.00 53 1015.8
20260507032003 46 293 0.0 0.9 0.00 0.00 0.00 55 1015.8
20260507031503 47 296 0.0 0.0 0.00 0.00 0.00 53 1015.8
20260507031006 47 296 0.0 0.0 0.00 0.00 0.00 51 1015.8
20260507030509 47 296 0.0 0.0 0.00 0.00 0.00 49 1015.8
20260507030007 47 296 0.0 0.0 0.00 0.00 0.00 47 1015.8
20260507025503 47 296 0.0 0.0 0.00 0.00 0.00 48 1015.8
20260507025006 47 297 0.0 0.0 0.00 0.00 0.00 46 1015.9
20260507024505 48 296 0.0 0.0 0.00 0.00 0.00 47 1015.8
20260507024005 48 296 0.0 0.0 0.00 0.00 0.00 47 1015.8
20260507023505 49 296 0.0 0.0 0.00 0.00 0.00 47 1015.7
20260507023011 49 296 0.0 0.0 0.00 0.00 0.00 47 1015.7
20260507022504 49 296 0.0 0.0 0.00 0.00 0.00 46 1015.6
20260507022004 49 296 0.0 0.0 0.00 0.00 0.00 42 1015.5
20260507021514 50 296 0.0 0.0 0.00 0.00 0.00 42 1015.5
20260507021007 51 296 0.0 0.0 0.00 0.00 0.00 41 1015.5
20260507020503 51 296 0.0 0.0 0.00 0.00 0.00 42 1015.5
20260507020010 51 296 0.0 0.0 0.00 0.00 0.00 39 1015.5
20260507015503 51 296 0.0 0.0 0.00 0.00 0.00 41 1015.5
20260507015006 51 296 0.0 0.0 0.00 0.00 0.00 40 1015.5
20260507014508 52 296 0.0 0.0 0.00 0.00 0.00 40 1015.5
20260507014004 52 297 0.0 0.0 0.00 0.00 0.00 38 1015.4
20260507013504 53 296 0.0 0.0 0.00 0.00 0.00 37 1015.4
20260507013011 53 296 0.0 0.0 0.00 0.00 0.00 37 1015.5
20260507012502 53 296 0.0 0.0 0.00 0.00 0.00 35 1015.4
20260507012007 53 296 0.0 0.0 0.00 0.00 0.00 35 1015.4
20260507011509 54 296 0.0 0.0 0.00 0.00 0.00 34 1015.4
20260507011003 54 296 0.0 0.9 0.00 0.00 0.00 35 1015.4
20260507010506 55 296 0.0 0.9 0.00 0.00 0.00 34 1015.4
20260507010006 55 297 0.0 0.9 0.00 0.00 0.00 36 1015.5
20260507005508 56 296 0.0 1.7 0.00 0.00 0.00 33 1015.4
20260507005003 56 296 0.0 2.6 0.00 0.00 0.00 31 1015.5
20260507004511 57 296 0.9 2.6 0.00 0.00 0.00 33 1015.5
20260507004008 57 250 0.9 3.5 0.00 0.00 0.00 31 1015.5
20260507003504 57 320 0.0 4.3 0.00 0.00 0.00 31 1015.5
20260507003019 57 320 1.7 4.3 0.00 0.00 0.00 30 1015.6
20260507002506 57 309 0.9 4.3 0.00 0.00 0.00 31 1015.6
20260507002004 57 332 0.9 4.3 0.00 0.00 0.00 32 1015.6
20260507001520 58 348 0.0 5.2 0.00 0.00 0.00 32 1015.7
20260507001008 58 335 1.7 5.2 0.00 0.00 0.00 30 1015.7
20260507000506 58 327 0.9 7.8 0.00 0.00 0.00 32 1015.8
20260507000012 58 321 1.7 7.8 0.00 0.00 0.00 30 1015.8
20260506235504 59 312 0.9 7.0 0.00 0.00 0.00 31 1015.8
20260506235008 58 323 1.7 7.0 0.00 0.00 0.00 30 1015.8
20260506234510 59 328 2.6 7.8 0.00 0.00 0.00 29 1015.9
20260506234003 59 277 2.6 7.8 0.00 0.00 0.00 31 1015.9
20260506233506 59 317 2.6 7.8 0.00 0.00 0.00 31 1016.0
20260506233012 60 340 1.7 6.1 0.00 0.00 0.00 28 1016.0
20260506232508 60 348 1.7 10.4 0.00 0.00 0.00 30 1016.0
20260506232007 59 19 4.3 13.9 0.00 0.00 0.00 30 1016.0
20260506231513 59 327 6.1 13.9 0.00 0.00 0.00 29 1016.0
20260506231007 59 5 0.9 3.5 0.00 0.00 0.00 28 1016.0
20260506230502 59 331 0.9 7.8 0.00 0.00 0.00 34 1016.1
20260506230010 58 329 3.5 7.8 0.00 0.00 0.00 31 1016.1
20260506225507 58 322 1.7 7.0 0.00 0.00 0.00 30 1016.1
20260506225007 59 19 0.9 7.0 0.00 0.00 0.00 32 1016.2
20260506224516 59 333 0.9 7.8 0.00 0.00 0.00 32 1016.2
20260506224007 58 317 2.6 7.8 0.00 0.00 0.00 30 1016.2
20260506223504 58 321 1.7 7.0 0.00 0.00 0.00 30 1016.2
20260506223018 59 310 1.7 7.0 0.00 0.00 0.00 30 1016.3
20260506222505 60 334 1.7 5.2 0.00 0.00 0.00 27 1016.3
20260506222008 60 319 2.6 7.0 0.00 0.00 0.00 30 1016.4
20260506221514 60 263 2.6 7.8 0.00 0.00 0.00 32 1016.4
20260506221006 60 306 1.7 7.8 0.00 0.00 0.00 32 1016.5
20260506220507 59 278 2.6 7.0 0.00 0.00 0.00 31 1016.6
20260506220020 59 282 1.7 5.2 0.00 0.00 0.00 29 1016.5
20260506215507 59 325 1.7 8.7 0.00 0.00 0.00 29 1016.6
20260506215006 59 360 2.6 8.7 0.00 0.00 0.00 30 1016.7
20260506214518 60 317 2.6 6.1 0.00 0.00 0.00 32 1016.7
20260506214010 60 316 1.7 5.2 0.00 0.00 0.00 30 1016.7
20260506213511 59 342 1.7 7.8 0.00 0.00 0.00 32 1016.7
20260506213019 59 200 2.6 7.8 0.00 0.00 0.00 31 1016.8
20260506212508 59 301 0.9 5.2 0.00 0.00 0.00 34 1016.8
20260506212016 60 324 0.9 6.1 0.00 0.00 0.00 30 1016.9
20260506211513 61 220 3.5 7.8 0.00 0.00 0.00 27 1016.9
20260506211007 61 343 1.7 10.4 0.00 0.00 0.00 33 1017.0
20260506210506 60 227 4.3 10.4 0.00 0.00 0.00 30 1017.2
20260506210021 60 309 2.6 8.7 0.00 0.00 0.00 34 1017.4
20260506205511 62 315 3.5 8.7 0.00 0.00 0.00 34 1017.4
20260506205006 61 346 2.6 6.1 0.00 0.00 0.00 36 1017.4
20260506204520 61 242 0.9 5.2 0.00 0.00 0.00 33 1017.5
20260506204005 58 347 2.6 9.6 0.00 0.00 0.00 35 1017.5
20260506203509 58 327 2.6 9.6 0.00 0.00 0.00 35 1017.6
20260506203025 58 313 3.5 9.6 0.00 0.00 0.00 33 1017.7
20260506202506 57 344 3.5 7.8 0.00 0.00 0.00 34 1017.7
20260506202014 58 313 2.6 7.8 0.00 0.00 0.00 34 1017.8
20260506201522 59 327 1.7 7.8 0.00 0.00 0.00 34 1017.8
20260506201009 59 307 1.7 6.1 0.00 0.00 0.00 34 1017.8
20260506200513 60 346 0.9 6.1 0.00 0.00 0.00 29 1017.7
20260506200017 61 306 2.6 9.6 0.00 0.00 0.00 35 1017.9
20260506195507 60 333 2.6 9.6 0.00 0.00 0.00 36 1017.9
20260506195006 60 355 4.3 9.6 0.00 0.00 0.00 33 1017.9
20260506194522 58 355 1.7 4.3 0.00 0.00 0.00 34 1018.0
20260506194009 58 338 1.7 7.8 0.00 0.00 0.00 35 1018.0
20260506193507 58 344 3.5 7.8 0.00 0.00 0.00 32 1018.0
20260506193021 58 331 3.5 8.7 0.00 0.00 0.00 34 1018.1
20260506192510 60 266 3.5 10.4 0.00 0.00 0.00 32 1018.0
20260506192008 61 335 5.2 10.4 0.00 0.00 0.00 34 1018.1
20260506191510 60 331 2.6 8.7 0.00 0.00 0.00 38 1018.1
20260506191004 59 310 2.6 9.6 0.00 0.00 0.00 42 1018.2
20260506190503 56 310 1.7 10.4 0.00 0.00 0.00 36 1018.2
20260506190016 58 315 6.1 10.4 0.00 0.00 0.00 35 1018.3
20260506185503 60 360 2.6 7.8 0.00 0.00 0.00 35 1018.3
20260506185003 60 309 2.6 7.8 0.00 0.00 0.00 36 1018.3
20260506184512 59 332 2.6 6.1 0.00 0.00 0.00 36 1018.4
20260506184005 59 238 2.6 9.6 0.00 0.00 0.00 35 1018.5
20260506183508 58 329 2.6 9.6 0.00 0.00 0.00 36 1018.5
20260506183005 59 315 2.6 8.7 0.00 0.00 0.00 36 1018.5
20260506182503 58 330 2.6 8.7 0.00 0.00 0.00 37 1018.6
20260506182005 59 323 3.5 9.6 0.00 0.00 0.00 40 1018.6
20260506181504 57 119 1.7 9.6 0.00 0.00 0.00 35 1018.5
20260506181004 59 321 4.3 9.6 0.00 0.00 0.00 38 1018.5
20260506180504 58 320 2.6 9.6 0.00 0.00 0.00 41 1018.9
20260506180005 57 306 3.5 7.8 0.00 0.00 0.00 38 1018.8
20260506175506 56 318 2.6 7.0 0.00 0.00 0.00 42 1018.9
20260506175005 55 5 2.6 8.7 0.00 0.00 0.00 37 1018.9
20260506174517 55 349 1.7 8.7 0.00 0.00 0.00 38 1018.9
20260506174002 56 332 3.5 7.8 0.00 0.00 0.00 39 1019.0
20260506173505 56 347 1.7 7.8 0.00 0.00 0.00 39 1019.1
20260506173015 56 323 3.5 9.6 0.00 0.00 0.00 43 1019.2
20260506172504 54 312 2.6 9.6 0.00 0.00 0.00 40 1019.3
20260506172003 57 330 2.6 9.6 0.00 0.00 0.00 42 1019.4
20260506171511 56 326 0.0 7.0 0.00 0.00 0.00 39 1019.4
20260506171003 54 238 1.7 6.1 0.00 0.00 0.00 37 1019.4
20260506170505 54 227 0.9 7.8 0.00 0.00 0.00 42 1019.6
20260506170007 53 140 2.6 7.8 0.00 0.00 0.00 37 1019.6
20260506165504 55 305 1.7 6.1 0.00 0.00 0.00 37 1019.5
20260506165005 56 309 0.9 7.0 0.00 0.00 0.00 38 1019.5
20260506164506 53 169 1.7 10.4 0.00 0.00 0.00 37 1019.6
20260506164009 55 317 4.3 10.4 0.00 0.00 0.00 37 1019.7
20260506163512 56 350 2.6 10.4 0.00 0.00 0.00 38 1019.7
20260506163008 55 330 1.7 11.3 0.00 0.00 0.00 42 1019.7
20260506162507 53 330 1.7 11.3 0.00 0.00 0.00 38 1019.7
20260506162013 54 261 0.9 6.1 0.00 0.00 0.00 37 1019.7
20260506161511 53 331 3.5 6.1 0.00 0.00 0.00 42 1019.7
20260506161003 53 311 2.6 6.1 0.00 0.00 0.00 39 1019.7
20260506160506 55 311 1.7 6.1 0.00 0.00 0.00 45 1019.6
20260506160006 54 5 1.7 7.0 0.00 0.00 0.00 43 1019.6
20260506155503 53 310 2.6 7.0 0.00 0.00 0.00 43 1019.5
20260506155004 54 344 2.6 9.6 0.00 0.00 0.00 41 1019.5
20260506154510 53 215 1.7 9.6 0.00 0.00 0.00 44 1019.5
20260506154004 53 351 2.6 9.6 0.00 0.00 0.00 43 1019.5
20260506153505 52 306 2.6 6.1 0.00 0.00 0.00 43 1019.5
20260506153013 52 311 2.6 5.2 0.00 0.00 0.00 43 1019.6
20260506152505 52 328 1.7 6.1 0.00 0.00 0.00 41 1019.5
20260506152005 52 303 2.6 6.1 0.00 0.00 0.00 45 1019.5
20260506151517 53 336 1.7 4.3 0.00 0.00 0.00 42 1019.6
20260506151009 53 334 0.9 3.5 0.00 0.00 0.00 46 1019.6
20260506150507 52 339 1.7 4.3 0.00 0.00 0.00 45 1019.6
20260506150007 52 355 0.9 7.0 0.00 0.00 0.00 44 1019.6
20260506145505 52 297 2.6 7.0 0.00 0.00 0.00 45 1019.6
20260506145010 52 321 1.7 6.1 0.00 0.00 0.00 47 1019.6
20260506144506 51 316 1.7 6.1 0.00 0.00 0.00 49 1019.6
20260506144006 51 348 0.9 4.3 0.00 0.00 0.00 46 1019.5
20260506143504 51 320 0.9 4.3 0.00 0.00 0.00 47 1019.6
20260506143012 51 303 0.9 2.6 0.00 0.00 0.00 51 1019.5
20260506142505 50 346 0.0 2.6 0.00 0.00 0.00 54 1019.5
20260506142005 49 346 0.0 2.6 0.00 0.00 0.00 51 1019.5
20260506141511 49 350 0.9 2.6 0.00 0.00 0.00 48 1019.5
20260506141006 49 347 0.9 3.5 0.00 0.00 0.00 51 1019.4
20260506140507 48 334 1.7 3.5 0.00 0.00 0.00 49 1019.4
20260506140022 47 242 0.0 2.6 0.00 0.00 0.00 52 1019.3
20260506135507 47 340 0.9 6.1 0.00 0.00 0.00 53 1019.3
20260506135006 47 331 1.7 6.1 0.00 0.00 0.00 52 1019.3
20260506134514 46 343 1.7 3.5 0.00 0.00 0.00 54 1019.2
20260506134010 46 309 0.9 4.3 0.00 0.00 0.00 56 1019.2
20260506133507 45 305 2.6 4.3 0.00 0.00 0.00 55 1019.1
20260506133018 45 309 1.7 4.3 0.00 0.00 0.00 54 1019.2
20260506132509 45 346 1.7 4.3 0.00 0.00 0.00 56 1019.1
20260506132007 45 348 0.9 4.3 0.00 0.00 0.00 56 1019.0
20260506131517 44 346 0.9 3.5 0.00 0.00 0.00 58 1018.9
20260506131006 43 322 1.7 3.5 0.00 0.00 0.00 59 1018.8
20260506130509 44 327 1.7 3.5 0.00 0.00 0.00 59 1018.8
20260506130020 44 298 1.7 2.6 0.00 0.00 0.00 60 1018.8
20260506125505 43 345 0.9 2.6 0.00 0.00 0.00 62 1018.8
20260506125007 43 344 0.9 2.6 0.00 0.00 0.00 64 1018.8
20260506124519 42 344 0.0 2.6 0.00 0.00 0.00 64 1018.8
20260506124010 42 344 0.0 3.5 0.00 0.00 0.00 63 1018.6
20260506123507 42 346 0.9 3.5 0.00 0.00 0.00 63 1018.5
20260506123015 41 341 0.9 2.6 0.00 0.00 0.00 65 1018.5
20260506122507 41 341 0.9 2.6 0.00 0.00 0.00 66 1018.4
20260506122006 40 341 0.0 1.7 0.00 0.00 0.00 68 1018.3
20260506121510 39 341 0.0 1.7 0.00 0.00 0.00 69 1018.3
20260506121004 38 341 0.0 1.7 0.00 0.00 0.00 71 1018.2
20260506120507 37 341 0.0 1.7 0.00 0.00 0.00 72 1018.1
20260506120028 37 341 0.0 0.9 0.00 0.00 0.00 72 1018.0
20260506115506 37 341 0.0 0.0 0.00 0.00 0.00 70 1017.9
20260506115006 37 341 0.0 0.0 0.00 0.00 0.00 70 1017.9
20260506114521 37 341 0.0 0.0 0.00 0.00 0.00 70 1017.8
20260506114007 37 341 0.0 0.0 0.00 0.00 0.00 70 1017.8
20260506113508 37 341 0.0 0.0 0.00 0.00 0.00 70 1017.7
20260506113024 37 341 0.0 0.0 0.00 0.00 0.00 70 1017.6
20260506112509 37 341 0.0 0.0 0.00 0.00 0.00 69 1017.6
20260506112007 37 341 0.0 0.0 0.00 0.00 0.00 70 1017.6
20260506111526 37 341 0.0 0.0 0.00 0.00 0.00 70 1017.6
20260506111007 37 341 0.0 0.0 0.00 0.00 0.00 69 1017.6
20260506110509 37 341 0.0 0.0 0.00 0.00 0.00 68 1017.5
20260506110022 38 341 0.0 0.0 0.00 0.00 0.00 66 1017.6
20260506105511 38 341 0.0 0.0 0.00 0.00 0.00 66 1017.7
20260506105007 38 341 0.0 0.0 0.00 0.00 0.00 66 1017.6
20260506104518 38 341 0.0 0.0 0.00 0.00 0.00 66 1017.6
20260506104007 38 341 0.0 0.0 0.00 0.00 0.00 67 1017.6
20260506103510 38 341 0.0 0.0 0.00 0.00 0.00 67 1017.5
20260506103018 38 341 0.0 0.0 0.00 0.00 0.00 66 1017.4
20260506102508 39 341 0.0 0.0 0.00 0.00 0.00 65 1017.4
20260506102011 39 341 0.0 0.0 0.00 0.00 0.00 65 1017.3